Location: Pic du Midi - T1M
(42.9366°N, 0.1426°E)
Time: 05:01:42
(UTC+01:00)

Nauka - Pass Details

Date: 03 October 2021
Orbit: 417 x 423 km, 51.6° (Epoch: 19 October)

Event Time Altitude Azimuth Distance (km) Brightness Sun altitude
Rises 19:17:20 0° 305° (NW) 2,357 ? -8.2°
Reaches altitude 10° 19:19:30 10° 312° (NW) 1,492 ? -8.6°
Maximum altitude 19:22:43 43° 26° (NNE) 592 ? -9.2°
Enters shadow 19:25:21 14° 97° (E) 1,267 ? -9.7°
